Year,Month,Day,Hour,Minute,Value (Times are PST for temperature in C)
2011,08,28,00,00,13.70
2011,08,28,00,01,13.70
2011,08,28,00,02,13.70
2011,08,28,00,03,13.70
2011,08,28,00,04,13.70
2011,08,28,00,05,13.70
2011,08,28,00,06,13.70
2011,08,28,00,07,13.70
2011,08,28,00,08,13.60
2011,08,28,00,09,13.60
2011,08,28,00,10,13.60
2011,08,28,00,11,13.60
2011,08,28,00,12,13.60
2011,08,28,00,13,13.60
2011,08,28,00,14,13.60
2011,08,28,00,15,13.60
2011,08,28,00,16,13.60
2011,08,28,00,17,13.60
2011,08,28,00,18,13.60
2011,08,28,00,19,13.50
2011,08,28,00,20,13.60
2011,08,28,00,21,13.60
2011,08,28,00,22,13.60
2011,08,28,00,23,13.60
2011,08,28,00,24,13.50
2011,08,28,00,25,13.50
2011,08,28,00,26,13.60
2011,08,28,00,27,13.60
2011,08,28,00,28,13.60
2011,08,28,00,29,13.60
2011,08,28,00,30,13.60
2011,08,28,00,31,13.60
2011,08,28,00,32,13.60
2011,08,28,00,33,13.60
2011,08,28,00,34,13.60
2011,08,28,00,35,13.50
2011,08,28,00,36,13.50
2011,08,28,00,37,13.50
2011,08,28,00,38,13.50
2011,08,28,00,39,13.50
2011,08,28,00,40,13.50
2011,08,28,00,41,13.40
2011,08,28,00,42,13.40
2011,08,28,00,43,13.40
2011,08,28,00,44,13.40
2011,08,28,00,45,13.40
2011,08,28,00,46,13.40
2011,08,28,00,47,13.30
2011,08,28,00,48,13.30
2011,08,28,00,49,13.30
2011,08,28,00,50,13.30
2011,08,28,00,51,13.20
2011,08,28,00,52,13.20
2011,08,28,00,53,13.20
2011,08,28,00,54,13.20
2011,08,28,00,55,13.10
2011,08,28,00,56,13.10
2011,08,28,00,57,13.10
2011,08,28,00,58,13.10
2011,08,28,00,59,13.00
2011,08,28,01,00,13.00
2011,08,28,01,01,13.00
2011,08,28,01,02,12.90
2011,08,28,01,03,12.90
2011,08,28,01,04,12.90
2011,08,28,01,05,12.90
2011,08,28,01,06,12.90
2011,08,28,01,07,12.90
2011,08,28,01,08,12.90
2011,08,28,01,09,12.80
2011,08,28,01,10,12.80
2011,08,28,01,11,12.80
2011,08,28,01,12,12.80
2011,08,28,01,13,12.80
2011,08,28,01,14,12.70
2011,08,28,01,15,12.70
2011,08,28,01,16,12.70
2011,08,28,01,17,12.70
2011,08,28,01,18,12.70
2011,08,28,01,19,12.70
2011,08,28,01,20,12.70
2011,08,28,01,21,12.70
2011,08,28,01,22,12.70
2011,08,28,01,23,12.70
2011,08,28,01,24,12.70
2011,08,28,01,25,12.70
2011,08,28,01,26,12.70
2011,08,28,01,27,12.70
2011,08,28,01,28,12.60
2011,08,28,01,29,12.60
2011,08,28,01,30,12.60
2011,08,28,01,31,12.60
2011,08,28,01,32,12.60
2011,08,28,01,33,12.60
2011,08,28,01,34,12.60
2011,08,28,01,35,12.60
2011,08,28,01,36,12.60
2011,08,28,01,37,12.60
2011,08,28,01,38,12.60
2011,08,28,01,39,12.60
2011,08,28,01,40,12.60
2011,08,28,01,41,12.60
2011,08,28,01,42,12.70
2011,08,28,01,43,12.70
2011,08,28,01,44,12.70
2011,08,28,01,45,12.70
2011,08,28,01,46,12.70
2011,08,28,01,47,12.70
2011,08,28,01,48,12.70
2011,08,28,01,49,12.70
2011,08,28,01,50,12.70
2011,08,28,01,51,12.70
2011,08,28,01,52,12.70
2011,08,28,01,53,12.70
2011,08,28,01,54,12.70
2011,08,28,01,55,12.70
2011,08,28,01,56,12.70
2011,08,28,01,57,12.70
2011,08,28,01,58,12.70
2011,08,28,01,59,12.70
2011,08,28,02,00,12.80
2011,08,28,02,01,12.80
2011,08,28,02,02,12.80
2011,08,28,02,03,12.80
2011,08,28,02,04,12.80
2011,08,28,02,05,12.80
2011,08,28,02,06,12.80
2011,08,28,02,07,12.80
2011,08,28,02,08,12.70
2011,08,28,02,09,12.70
2011,08,28,02,10,12.70
2011,08,28,02,11,12.70
2011,08,28,02,12,12.70
2011,08,28,02,13,12.70
2011,08,28,02,14,12.70
2011,08,28,02,15,12.70
2011,08,28,02,16,12.70
2011,08,28,02,17,12.60
2011,08,28,02,18,12.60
2011,08,28,02,19,12.60
2011,08,28,02,20,12.60
2011,08,28,02,21,12.60
2011,08,28,02,22,12.60
2011,08,28,02,23,12.60
2011,08,28,02,24,12.60
2011,08,28,02,25,12.60
2011,08,28,02,26,12.60
2011,08,28,02,27,12.60
2011,08,28,02,28,12.60
2011,08,28,02,29,12.60
2011,08,28,02,30,12.60
2011,08,28,02,31,12.60
2011,08,28,02,32,12.60
2011,08,28,02,33,12.60
2011,08,28,02,34,12.60
2011,08,28,02,35,12.50
2011,08,28,02,36,12.50
2011,08,28,02,37,12.50
2011,08,28,02,38,12.50
2011,08,28,02,39,12.50
2011,08,28,02,40,12.50
2011,08,28,02,41,12.40
2011,08,28,02,42,12.40
2011,08,28,02,43,12.40
2011,08,28,02,44,12.40
2011,08,28,02,45,12.30
2011,08,28,02,46,12.30
2011,08,28,02,47,12.30
2011,08,28,02,48,12.30
2011,08,28,02,49,12.20
2011,08,28,02,50,12.20
2011,08,28,02,51,12.20
2011,08,28,02,52,12.20
2011,08,28,02,53,12.20
2011,08,28,02,54,12.20
2011,08,28,02,55,12.10
2011,08,28,02,56,12.10
2011,08,28,02,57,12.10
2011,08,28,02,58,12.10
2011,08,28,02,59,12.00
2011,08,28,03,00,12.00
2011,08,28,03,01,12.00
2011,08,28,03,02,12.00
2011,08,28,03,03,12.00
2011,08,28,03,04,11.90
2011,08,28,03,05,11.90
2011,08,28,03,06,11.90
2011,08,28,03,07,11.90
2011,08,28,03,08,11.90
2011,08,28,03,09,11.90
2011,08,28,03,10,11.90
2011,08,28,03,11,11.90
2011,08,28,03,12,11.90
2011,08,28,03,13,11.90
2011,08,28,03,14,11.90
2011,08,28,03,15,11.80
2011,08,28,03,16,11.80
2011,08,28,03,17,11.80
2011,08,28,03,18,11.80
2011,08,28,03,19,11.80
2011,08,28,03,20,11.80
2011,08,28,03,21,11.80
2011,08,28,03,22,11.80
2011,08,28,03,23,11.80
2011,08,28,03,24,11.80
2011,08,28,03,25,11.80
2011,08,28,03,26,11.90
2011,08,28,03,27,11.80
2011,08,28,03,28,11.90
2011,08,28,03,29,11.80
2011,08,28,03,30,11.80
2011,08,28,03,31,11.80
2011,08,28,03,32,11.80
2011,08,28,03,33,11.90
2011,08,28,03,34,11.90
2011,08,28,03,35,11.90
2011,08,28,03,36,11.90
2011,08,28,03,37,11.90
2011,08,28,03,38,11.90
2011,08,28,03,39,11.90
2011,08,28,03,40,11.90
2011,08,28,03,41,11.80
2011,08,28,03,42,11.80
2011,08,28,03,43,11.80
2011,08,28,03,44,11.80
2011,08,28,03,45,11.80
2011,08,28,03,46,11.80
2011,08,28,03,47,11.80
2011,08,28,03,48,11.80
2011,08,28,03,49,11.80
2011,08,28,03,50,11.70
2011,08,28,03,51,11.70
2011,08,28,03,52,11.70
2011,08,28,03,53,11.60
2011,08,28,03,54,11.60
2011,08,28,03,55,11.60
2011,08,28,03,56,11.60
2011,08,28,03,57,11.60
2011,08,28,03,58,11.60
2011,08,28,03,59,11.50
2011,08,28,04,00,11.50
2011,08,28,04,01,11.50
2011,08,28,04,02,11.50
2011,08,28,04,03,11.50
2011,08,28,04,04,11.50
2011,08,28,04,05,11.50
2011,08,28,04,06,11.50
2011,08,28,04,07,11.50
2011,08,28,04,08,11.40
2011,08,28,04,09,11.40
2011,08,28,04,10,11.40
2011,08,28,04,11,11.40
2011,08,28,04,12,11.40
2011,08,28,04,13,11.40
2011,08,28,04,14,11.40
2011,08,28,04,15,11.30
2011,08,28,04,16,11.30
2011,08,28,04,17,11.30
2011,08,28,04,18,11.30
2011,08,28,04,19,11.30
2011,08,28,04,20,11.30
2011,08,28,04,21,11.30
2011,08,28,04,22,11.30
2011,08,28,04,23,11.30
2011,08,28,04,24,11.30
2011,08,28,04,25,11.30
2011,08,28,04,26,11.30
2011,08,28,04,27,11.30
2011,08,28,04,28,11.30
2011,08,28,04,29,11.30
2011,08,28,04,30,11.30
2011,08,28,04,31,11.30
2011,08,28,04,32,11.30
2011,08,28,04,33,11.40
2011,08,28,04,34,11.40
2011,08,28,04,35,11.40
2011,08,28,04,36,11.40
2011,08,28,04,37,11.50
2011,08,28,04,38,11.50
2011,08,28,04,39,11.60
2011,08,28,04,40,11.60
2011,08,28,04,41,11.60
2011,08,28,04,42,11.60
2011,08,28,04,43,11.60
2011,08,28,04,44,11.60
2011,08,28,04,45,11.70
2011,08,28,04,46,11.70
2011,08,28,04,47,11.70
2011,08,28,04,48,11.70
2011,08,28,04,49,11.70
2011,08,28,04,50,11.70
2011,08,28,04,51,11.70
2011,08,28,04,52,11.70
2011,08,28,04,53,11.70
2011,08,28,04,54,11.70
2011,08,28,04,55,11.70
2011,08,28,04,56,11.70
2011,08,28,04,57,11.70
2011,08,28,04,58,11.70
2011,08,28,04,59,11.70
2011,08,28,05,00,11.70
2011,08,28,05,01,11.70
2011,08,28,05,02,11.70
2011,08,28,05,03,11.70
2011,08,28,05,04,11.60
2011,08,28,05,05,11.60
2011,08,28,05,06,11.60
2011,08,28,05,07,11.60
2011,08,28,05,08,11.60
2011,08,28,05,09,11.60
2011,08,28,05,10,11.50
2011,08,28,05,11,11.50
2011,08,28,05,12,11.50
2011,08,28,05,13,11.40
2011,08,28,05,14,11.40
2011,08,28,05,15,11.40
2011,08,28,05,16,11.40
2011,08,28,05,17,11.40
2011,08,28,05,18,11.40
2011,08,28,05,19,11.40
2011,08,28,05,20,11.40
2011,08,28,05,21,11.40
2011,08,28,05,22,11.50
2011,08,28,05,23,11.50
2011,08,28,05,24,11.50
2011,08,28,05,25,11.50
2011,08,28,05,26,11.50
2011,08,28,05,27,11.50
2011,08,28,05,28,11.50
2011,08,28,05,29,11.50
2011,08,28,05,30,11.50
2011,08,28,05,31,11.50
2011,08,28,05,32,11.50
2011,08,28,05,33,11.50
2011,08,28,05,34,11.50
2011,08,28,05,35,11.50
2011,08,28,05,36,11.50
2011,08,28,05,37,11.50
2011,08,28,05,38,11.50
2011,08,28,05,39,11.50
2011,08,28,05,40,11.60
2011,08,28,05,41,11.50
2011,08,28,05,42,11.50
2011,08,28,05,43,11.50
2011,08,28,05,44,11.50
2011,08,28,05,45,11.50
2011,08,28,05,46,11.50
2011,08,28,05,47,11.50
2011,08,28,05,48,11.50
2011,08,28,05,49,11.50
2011,08,28,05,50,11.50
2011,08,28,05,51,11.50
2011,08,28,05,52,11.50
2011,08,28,05,53,11.50
2011,08,28,05,54,11.50
2011,08,28,05,55,11.50
2011,08,28,05,56,11.50
2011,08,28,05,57,11.50
2011,08,28,05,58,11.50
2011,08,28,05,59,11.50
2011,08,28,06,00,11.50
2011,08,28,06,01,11.50
2011,08,28,06,02,11.50
2011,08,28,06,03,11.50
2011,08,28,06,04,11.50
2011,08,28,06,05,11.40
2011,08,28,06,06,11.40
2011,08,28,06,07,11.40
2011,08,28,06,08,11.40
2011,08,28,06,09,11.40
2011,08,28,06,10,11.30
2011,08,28,06,11,11.30
2011,08,28,06,12,11.30
2011,08,28,06,13,11.30
2011,08,28,06,14,11.30
2011,08,28,06,15,11.30
2011,08,28,06,16,11.30
2011,08,28,06,17,11.30
2011,08,28,06,18,11.30
2011,08,28,06,19,11.30
2011,08,28,06,20,11.30
2011,08,28,06,21,11.30
2011,08,28,06,22,11.30
2011,08,28,06,23,11.30
2011,08,28,06,24,11.30
2011,08,28,06,25,11.30
2011,08,28,06,26,11.30
2011,08,28,06,27,11.30
2011,08,28,06,28,11.30
2011,08,28,06,29,11.30
2011,08,28,06,30,11.20
2011,08,28,06,31,11.20
2011,08,28,06,32,11.20
2011,08,28,06,33,11.20
2011,08,28,06,34,11.20
2011,08,28,06,35,11.20
2011,08,28,06,36,11.10
2011,08,28,06,37,11.10
2011,08,28,06,38,11.10
2011,08,28,06,39,11.10
2011,08,28,06,40,11.10
2011,08,28,06,41,11.10
2011,08,28,06,42,11.10
2011,08,28,06,43,11.10
2011,08,28,06,44,11.10
2011,08,28,06,45,11.10
2011,08,28,06,46,11.10
2011,08,28,06,47,11.10
2011,08,28,06,48,11.10
2011,08,28,06,49,11.10
2011,08,28,06,50,11.10
2011,08,28,06,51,11.10
2011,08,28,06,52,11.20
2011,08,28,06,53,11.20
2011,08,28,06,54,11.20
2011,08,28,06,55,11.20
2011,08,28,06,56,11.20
2011,08,28,06,57,11.20
2011,08,28,06,58,11.20
2011,08,28,06,59,11.20
2011,08,28,07,00,11.20
2011,08,28,07,01,11.20
2011,08,28,07,02,11.20
2011,08,28,07,03,11.20
2011,08,28,07,04,11.20
2011,08,28,07,05,11.20
2011,08,28,07,06,11.20
2011,08,28,07,07,11.20
2011,08,28,07,08,11.20
2011,08,28,07,09,11.30
2011,08,28,07,10,11.30
2011,08,28,07,11,11.30
2011,08,28,07,12,11.30
2011,08,28,07,13,11.30
2011,08,28,07,14,11.30
2011,08,28,07,15,11.30
2011,08,28,07,16,11.30
2011,08,28,07,17,11.30
2011,08,28,07,18,11.40
2011,08,28,07,19,11.40
2011,08,28,07,20,11.40
2011,08,28,07,21,11.40
2011,08,28,07,22,11.50
2011,08,28,07,23,11.60
2011,08,28,07,24,11.60
2011,08,28,07,25,11.60
2011,08,28,07,26,11.70
2011,08,28,07,27,11.70
2011,08,28,07,28,11.80
2011,08,28,07,29,11.90
2011,08,28,07,30,11.90
2011,08,28,07,31,12.00
2011,08,28,07,32,12.10
2011,08,28,07,33,12.20
2011,08,28,07,34,12.30
2011,08,28,07,35,12.30
2011,08,28,07,36,12.40
2011,08,28,07,37,12.50
2011,08,28,07,38,12.60
2011,08,28,07,39,12.70
2011,08,28,07,40,12.70
2011,08,28,07,41,12.80
2011,08,28,07,42,12.90
2011,08,28,07,43,13.00
2011,08,28,07,44,13.10
2011,08,28,07,45,13.20
2011,08,28,07,46,13.30
2011,08,28,07,47,13.40
2011,08,28,07,48,13.50
2011,08,28,07,49,13.60
2011,08,28,07,50,13.70
2011,08,28,07,51,13.80
2011,08,28,07,52,13.80
2011,08,28,07,53,13.90
2011,08,28,07,54,14.00
2011,08,28,07,55,14.10
2011,08,28,07,56,14.20
2011,08,28,07,57,14.30
2011,08,28,07,58,14.40
2011,08,28,07,59,14.50
2011,08,28,08,00,14.60
2011,08,28,08,01,14.80
2011,08,28,08,02,15.00
2011,08,28,08,03,15.00
2011,08,28,08,04,15.20
2011,08,28,08,05,15.40
2011,08,28,08,06,15.60
2011,08,28,08,07,15.70
2011,08,28,08,08,15.90
2011,08,28,08,09,16.00
2011,08,28,08,10,16.10
2011,08,28,08,11,16.30
2011,08,28,08,12,16.40
2011,08,28,08,13,16.50
2011,08,28,08,14,16.60
2011,08,28,08,15,16.60
2011,08,28,08,16,16.70
2011,08,28,08,17,16.80
2011,08,28,08,18,16.90
2011,08,28,08,19,17.00
2011,08,28,08,20,17.10
2011,08,28,08,21,17.20
2011,08,28,08,22,17.20
2011,08,28,08,23,17.30
2011,08,28,08,24,17.40
2011,08,28,08,25,17.40
2011,08,28,08,26,17.50
2011,08,28,08,27,17.60
2011,08,28,08,28,17.70
2011,08,28,08,29,17.80
2011,08,28,08,30,18.00
2011,08,28,08,31,18.10
2011,08,28,08,32,18.20
2011,08,28,08,33,18.40
2011,08,28,08,34,18.50
2011,08,28,08,35,18.70
2011,08,28,08,36,18.80
2011,08,28,08,37,19.00
2011,08,28,08,38,19.10
2011,08,28,08,39,19.30
2011,08,28,08,40,19.40
2011,08,28,08,41,19.60
2011,08,28,08,42,19.70
2011,08,28,08,43,19.90
2011,08,28,08,44,20.00
2011,08,28,08,45,20.10
2011,08,28,08,46,20.10
2011,08,28,08,47,20.20
2011,08,28,08,48,20.30
2011,08,28,08,49,20.30
2011,08,28,08,50,20.40
2011,08,28,08,51,20.50
2011,08,28,08,52,20.60
2011,08,28,08,53,20.60
2011,08,28,08,54,20.60
2011,08,28,08,55,20.70
2011,08,28,08,56,20.70
2011,08,28,08,57,20.70
2011,08,28,08,58,20.70
2011,08,28,08,59,20.70
2011,08,28,09,00,20.70
2011,08,28,09,01,20.60
2011,08,28,09,02,20.60
2011,08,28,09,03,20.60
2011,08,28,09,04,20.60
2011,08,28,09,05,20.60
2011,08,28,09,06,20.60
2011,08,28,09,07,20.70
2011,08,28,09,08,20.70
2011,08,28,09,09,20.70
2011,08,28,09,10,20.80
2011,08,28,09,11,20.80
2011,08,28,09,12,20.70
2011,08,28,09,13,20.70
2011,08,28,09,14,20.70
2011,08,28,09,15,20.70
2011,08,28,09,16,20.70
2011,08,28,09,17,20.70
2011,08,28,09,18,20.70
2011,08,28,09,19,20.70
2011,08,28,09,20,20.70
2011,08,28,09,21,20.70
2011,08,28,09,22,20.60
2011,08,28,09,23,20.60
2011,08,28,09,24,20.70
2011,08,28,09,25,20.70
2011,08,28,09,26,20.70
2011,08,28,09,27,20.70
2011,08,28,09,28,20.70
2011,08,28,09,29,20.70
2011,08,28,09,30,20.70
2011,08,28,09,31,20.70
2011,08,28,09,32,20.60
2011,08,28,09,33,20.60
2011,08,28,09,34,20.60
2011,08,28,09,35,20.70
2011,08,28,09,36,20.70
2011,08,28,09,37,20.70
2011,08,28,09,38,20.80
2011,08,28,09,39,20.80
2011,08,28,09,40,20.80
2011,08,28,09,41,20.80
2011,08,28,09,42,20.80
2011,08,28,09,43,20.80
2011,08,28,09,44,20.80
2011,08,28,09,45,20.80
2011,08,28,09,46,20.70
2011,08,28,09,47,20.80
2011,08,28,09,48,20.80
2011,08,28,09,49,20.70
2011,08,28,09,50,20.70
2011,08,28,09,51,20.70
2011,08,28,09,52,20.70
2011,08,28,09,53,20.70
2011,08,28,09,54,20.70
2011,08,28,09,55,20.80
2011,08,28,09,56,20.80
2011,08,28,09,57,20.80
2011,08,28,09,58,20.80
2011,08,28,09,59,20.80
2011,08,28,10,00,20.80
2011,08,28,10,01,20.90
2011,08,28,10,02,20.90
2011,08,28,10,03,20.90
2011,08,28,10,04,20.90
2011,08,28,10,05,20.90
2011,08,28,10,06,20.90
2011,08,28,10,07,20.90
2011,08,28,10,08,20.90
2011,08,28,10,09,20.90
2011,08,28,10,10,20.90
2011,08,28,10,11,20.90
2011,08,28,10,12,20.80
2011,08,28,10,13,20.80
2011,08,28,10,14,20.80
2011,08,28,10,15,20.90
2011,08,28,10,16,20.90
2011,08,28,10,17,21.00
2011,08,28,10,18,21.10
2011,08,28,10,19,21.10
2011,08,28,10,20,21.20
2011,08,28,10,21,21.20
2011,08,28,10,22,21.20
2011,08,28,10,23,21.30
2011,08,28,10,24,21.40
2011,08,28,10,25,21.40
2011,08,28,10,26,21.50
2011,08,28,10,27,21.50
2011,08,28,10,28,21.60
2011,08,28,10,29,21.60
2011,08,28,10,30,21.70
2011,08,28,10,31,21.80
2011,08,28,10,32,21.80
2011,08,28,10,33,21.90
2011,08,28,10,34,22.00
2011,08,28,10,35,22.10
2011,08,28,10,36,22.10
2011,08,28,10,37,22.20
2011,08,28,10,38,22.20
2011,08,28,10,39,22.20
2011,08,28,10,40,22.10
2011,08,28,10,41,22.10
2011,08,28,10,42,22.10
2011,08,28,10,43,22.10
2011,08,28,10,44,22.20
2011,08,28,10,45,22.20
2011,08,28,10,46,22.20
2011,08,28,10,47,22.20
2011,08,28,10,48,22.20
2011,08,28,10,49,22.30
2011,08,28,10,50,22.30
2011,08,28,10,51,22.30
2011,08,28,10,52,22.40
2011,08,28,10,53,22.40
2011,08,28,10,54,22.50
2011,08,28,10,55,22.60
2011,08,28,10,56,22.60
2011,08,28,10,57,22.70
2011,08,28,10,58,22.80
2011,08,28,10,59,22.80
2011,08,28,11,00,22.80
2011,08,28,11,01,22.80
2011,08,28,11,02,22.80
2011,08,28,11,03,22.80
2011,08,28,11,04,22.90
2011,08,28,11,05,22.90
2011,08,28,11,06,22.90
2011,08,28,11,07,22.90
2011,08,28,11,08,22.90
2011,08,28,11,09,23.00
2011,08,28,11,10,23.10
2011,08,28,11,11,23.10
2011,08,28,11,12,23.20
2011,08,28,11,13,23.20
2011,08,28,11,14,23.30
2011,08,28,11,15,23.30
2011,08,28,11,16,23.30
2011,08,28,11,17,23.30
2011,08,28,11,18,23.30
2011,08,28,11,19,23.30
2011,08,28,11,20,23.30
2011,08,28,11,21,23.30
2011,08,28,11,22,23.30
2011,08,28,11,23,23.30
2011,08,28,11,24,23.30
2011,08,28,11,25,23.30
2011,08,28,11,26,23.20
2011,08,28,11,27,23.20
2011,08,28,11,28,23.20
2011,08,28,11,29,23.20
2011,08,28,11,30,23.20
2011,08,28,11,31,23.10
2011,08,28,11,32,23.10
2011,08,28,11,33,23.20
2011,08,28,11,34,23.20
2011,08,28,11,35,23.20
2011,08,28,11,36,23.30
2011,08,28,11,37,23.30
2011,08,28,11,38,23.40
2011,08,28,11,39,23.40
2011,08,28,11,40,23.50
2011,08,28,11,41,23.60
2011,08,28,11,42,23.60
2011,08,28,11,43,23.60
2011,08,28,11,44,23.60
2011,08,28,11,45,23.60
2011,08,28,11,46,23.60
2011,08,28,11,47,23.60
2011,08,28,11,48,23.60
2011,08,28,11,49,23.70
2011,08,28,11,50,23.70
2011,08,28,11,51,23.60
2011,08,28,11,52,23.60
2011,08,28,11,53,23.70
2011,08,28,11,54,23.80
2011,08,28,11,55,23.70
2011,08,28,11,56,23.60
2011,08,28,11,57,23.60
2011,08,28,11,58,23.50
2011,08,28,11,59,23.60
2011,08,28,12,00,23.50
2011,08,28,12,01,23.50
2011,08,28,12,02,23.50
2011,08,28,12,03,23.40
2011,08,28,12,04,23.40
2011,08,28,12,05,23.40
2011,08,28,12,06,23.40
2011,08,28,12,07,23.40
2011,08,28,12,08,23.40
2011,08,28,12,09,23.50
2011,08,28,12,10,23.50
2011,08,28,12,11,23.40
2011,08,28,12,12,23.30
2011,08,28,12,13,23.30
2011,08,28,12,14,23.30
2011,08,28,12,15,23.40
2011,08,28,12,16,23.40
2011,08,28,12,17,23.40
2011,08,28,12,18,23.40
2011,08,28,12,19,23.50
2011,08,28,12,20,23.50
2011,08,28,12,21,23.50
2011,08,28,12,22,23.40
2011,08,28,12,23,23.40
2011,08,28,12,24,23.40
2011,08,28,12,25,23.40
2011,08,28,12,26,23.40
2011,08,28,12,27,23.40
2011,08,28,12,28,23.40
2011,08,28,12,29,23.40
2011,08,28,12,30,23.30
2011,08,28,12,31,23.20
2011,08,28,12,32,23.20
2011,08,28,12,33,23.20
2011,08,28,12,34,23.30
2011,08,28,12,35,23.30
2011,08,28,12,36,23.30
2011,08,28,12,37,23.30
2011,08,28,12,38,23.40
2011,08,28,12,39,23.30
2011,08,28,12,40,23.30
2011,08,28,12,41,23.20
2011,08,28,12,42,23.10
2011,08,28,12,43,23.10
2011,08,28,12,44,23.00
2011,08,28,12,45,23.00
2011,08,28,12,46,23.10
2011,08,28,12,47,23.20
2011,08,28,12,48,23.20
2011,08,28,12,49,23.30
2011,08,28,12,50,23.30
2011,08,28,12,51,23.30
2011,08,28,12,52,23.30
2011,08,28,12,53,23.30
2011,08,28,12,54,23.30
2011,08,28,12,55,23.30
2011,08,28,12,56,23.40
2011,08,28,12,57,23.40
2011,08,28,12,58,23.50
2011,08,28,12,59,23.60
2011,08,28,13,00,23.60
2011,08,28,13,01,23.60
2011,08,28,13,02,23.50
2011,08,28,13,03,23.40
2011,08,28,13,04,23.50
2011,08,28,13,05,23.50
2011,08,28,13,06,23.60
2011,08,28,13,07,23.70
2011,08,28,13,08,23.80
2011,08,28,13,09,23.80
2011,08,28,13,10,23.80
2011,08,28,13,11,23.80
2011,08,28,13,12,23.80
2011,08,28,13,13,23.80
2011,08,28,13,14,23.70
2011,08,28,13,15,23.70
2011,08,28,13,16,23.80
2011,08,28,13,17,23.80
2011,08,28,13,18,23.80
2011,08,28,13,19,23.80
2011,08,28,13,20,23.80
2011,08,28,13,21,23.70
2011,08,28,13,22,23.70
2011,08,28,13,23,23.70
2011,08,28,13,24,23.70
2011,08,28,13,25,23.80
2011,08,28,13,26,23.80
2011,08,28,13,27,23.80
2011,08,28,13,28,23.80
2011,08,28,13,29,23.80
2011,08,28,13,30,23.80
2011,08,28,13,31,23.80
2011,08,28,13,32,23.90
2011,08,28,13,33,23.90
2011,08,28,13,34,24.00
2011,08,28,13,35,24.10
2011,08,28,13,36,24.30
2011,08,28,13,37,24.40
2011,08,28,13,38,24.50
2011,08,28,13,39,24.60
2011,08,28,13,40,24.70
2011,08,28,13,41,24.80
2011,08,28,13,42,24.80
2011,08,28,13,43,24.90
2011,08,28,13,44,24.80
2011,08,28,13,45,24.80
2011,08,28,13,46,24.80
2011,08,28,13,47,24.80
2011,08,28,13,48,24.70
2011,08,28,13,49,24.70
2011,08,28,13,50,24.70
2011,08,28,13,51,24.80
2011,08,28,13,52,24.80
2011,08,28,13,53,24.90
2011,08,28,13,54,25.00
2011,08,28,13,55,24.90
2011,08,28,13,56,24.90
2011,08,28,13,57,24.80
2011,08,28,13,58,24.70
2011,08,28,13,59,24.70
2011,08,28,14,00,24.70
2011,08,28,14,01,24.70
2011,08,28,14,02,24.70
2011,08,28,14,03,24.70
2011,08,28,14,04,24.70
2011,08,28,14,05,24.70
2011,08,28,14,06,24.70
2011,08,28,14,07,24.70
2011,08,28,14,08,24.80
2011,08,28,14,09,24.90
2011,08,28,14,10,25.00
2011,08,28,14,11,25.10
2011,08,28,14,12,25.20
2011,08,28,14,13,25.10
2011,08,28,14,14,25.10
2011,08,28,14,15,25.10
2011,08,28,14,16,25.00
2011,08,28,14,17,25.00
2011,08,28,14,18,25.10
2011,08,28,14,19,25.10
2011,08,28,14,20,25.10
2011,08,28,14,21,25.10
2011,08,28,14,22,25.10
2011,08,28,14,23,25.10
2011,08,28,14,24,25.20
2011,08,28,14,25,25.30
2011,08,28,14,26,25.30
2011,08,28,14,27,25.40
2011,08,28,14,28,25.40
2011,08,28,14,29,25.30
2011,08,28,14,30,25.30
2011,08,28,14,31,25.20
2011,08,28,14,32,25.20
2011,08,28,14,33,25.30
2011,08,28,14,34,25.30
2011,08,28,14,35,25.30
2011,08,28,14,36,25.30
2011,08,28,14,37,25.30
2011,08,28,14,38,25.30
2011,08,28,14,39,25.30
2011,08,28,14,40,25.30
2011,08,28,14,41,25.40
2011,08,28,14,42,25.50
2011,08,28,14,43,25.50
2011,08,28,14,44,25.60
2011,08,28,14,45,25.60
2011,08,28,14,46,25.50
2011,08,28,14,47,25.50
2011,08,28,14,48,25.50
2011,08,28,14,49,25.50
2011,08,28,14,50,25.50
2011,08,28,14,51,25.60
2011,08,28,14,52,25.70
2011,08,28,14,53,25.70
2011,08,28,14,54,25.80
2011,08,28,14,55,25.90
2011,08,28,14,56,25.90
2011,08,28,14,57,25.90
2011,08,28,14,58,25.90
2011,08,28,14,59,25.90
2011,08,28,15,00,26.00
2011,08,28,15,01,26.00
2011,08,28,15,02,26.00
2011,08,28,15,03,26.10
2011,08,28,15,04,26.10
2011,08,28,15,05,26.20
2011,08,28,15,06,26.20
2011,08,28,15,07,26.20
2011,08,28,15,08,26.20
2011,08,28,15,09,26.20
2011,08,28,15,10,26.20
2011,08,28,15,11,26.20
2011,08,28,15,12,26.20
2011,08,28,15,13,26.20
2011,08,28,15,14,26.30
2011,08,28,15,15,26.40
2011,08,28,15,16,26.50
2011,08,28,15,17,26.60
2011,08,28,15,18,26.70
2011,08,28,15,19,26.70
2011,08,28,15,20,26.70
2011,08,28,15,21,26.80
2011,08,28,15,22,26.80
2011,08,28,15,23,26.80
2011,08,28,15,24,26.80
2011,08,28,15,25,26.80
2011,08,28,15,26,26.80
2011,08,28,15,27,26.80
2011,08,28,15,28,26.80
2011,08,28,15,29,26.80
2011,08,28,15,30,26.80
2011,08,28,15,31,26.80
2011,08,28,15,32,26.80
2011,08,28,15,33,26.90
2011,08,28,15,34,27.00
2011,08,28,15,35,27.20
2011,08,28,15,36,27.30
2011,08,28,15,37,27.20
2011,08,28,15,38,27.20
2011,08,28,15,39,27.20
2011,08,28,15,40,27.20
2011,08,28,15,41,27.30
2011,08,28,15,42,27.30
2011,08,28,15,43,27.40
2011,08,28,15,44,27.50
2011,08,28,15,45,27.60
2011,08,28,15,46,27.50
2011,08,28,15,47,27.50
2011,08,28,15,48,27.40
2011,08,28,15,49,27.30
2011,08,28,15,50,27.20
2011,08,28,15,51,27.10
2011,08,28,15,52,27.10
2011,08,28,15,53,27.10
2011,08,28,15,54,27.10
2011,08,28,15,55,27.10
2011,08,28,15,56,27.00
2011,08,28,15,57,26.90
2011,08,28,15,58,26.90
2011,08,28,15,59,26.90
2011,08,28,16,00,26.90
2011,08,28,16,01,26.90
2011,08,28,16,02,26.90
2011,08,28,16,03,26.90
2011,08,28,16,04,26.80
2011,08,28,16,05,26.80
2011,08,28,16,06,26.70
2011,08,28,16,07,26.70
2011,08,28,16,08,26.70
2011,08,28,16,09,26.70
2011,08,28,16,10,26.70
2011,08,28,16,11,26.70
2011,08,28,16,12,26.70
2011,08,28,16,13,26.70
2011,08,28,16,14,26.80
2011,08,28,16,15,26.80
2011,08,28,16,16,26.90
2011,08,28,16,17,26.90
2011,08,28,16,18,27.00
2011,08,28,16,19,27.00
2011,08,28,16,20,27.00
2011,08,28,16,21,27.10
2011,08,28,16,22,27.10
2011,08,28,16,23,27.10
2011,08,28,16,24,27.10
2011,08,28,16,25,27.20
2011,08,28,16,26,27.20
2011,08,28,16,27,27.20
2011,08,28,16,28,27.00
2011,08,28,16,29,26.90
2011,08,28,16,30,26.80
2011,08,28,16,31,26.80
2011,08,28,16,32,26.80
2011,08,28,16,33,26.80
2011,08,28,16,34,26.80
2011,08,28,16,35,26.90
2011,08,28,16,36,26.90
2011,08,28,16,37,27.00
2011,08,28,16,38,27.10
2011,08,28,16,39,27.10
2011,08,28,16,40,27.20
2011,08,28,16,41,27.30
2011,08,28,16,42,27.40
2011,08,28,16,43,27.50
2011,08,28,16,44,27.60
2011,08,28,16,45,27.70
2011,08,28,16,46,27.70
2011,08,28,16,47,27.60
2011,08,28,16,48,27.50
2011,08,28,16,49,27.40
2011,08,28,16,50,27.40
2011,08,28,16,51,27.30
2011,08,28,16,52,27.30
2011,08,28,16,53,27.20
2011,08,28,16,54,27.30
2011,08,28,16,55,27.30
2011,08,28,16,56,27.30
2011,08,28,16,57,27.30
2011,08,28,16,58,27.40
2011,08,28,16,59,27.30
2011,08,28,17,00,27.30
2011,08,28,17,01,27.20
2011,08,28,17,02,27.20
2011,08,28,17,03,27.10
2011,08,28,17,04,27.10
2011,08,28,17,05,27.00
2011,08,28,17,06,26.90
2011,08,28,17,07,26.90
2011,08,28,17,08,26.90
2011,08,28,17,09,27.00
2011,08,28,17,10,27.00
2011,08,28,17,11,27.00
2011,08,28,17,12,26.90
2011,08,28,17,13,26.90
2011,08,28,17,14,26.90
2011,08,28,17,15,27.00
2011,08,28,17,16,27.00
2011,08,28,17,17,27.00
2011,08,28,17,18,27.00
2011,08,28,17,19,27.00